User: anonymous   Login
Location: Huntington Beach
(33.6600°N, 117.9980°W)
Time: 00:19:28
(UTC-07:00)
Language:

SL-16 R/B - Orbit

View from above orbital plane
View from above orbital plane
View from above satellite
View from above satellite

Ground track
Ground track

The orbit data is extracted from the following two-line orbital elements,

1 28353U 04021B   17230.74681196 +.00000291 +00000-0 +17738-3 0  9994
2 28353 071.0020 307.2683 0003189 113.5015 246.6443 14.14199019680999
Epoch (UTC): 18 August 2017 17:55:24
Eccentricity: 0.0003189
inclination: 71.0020°
perigee height: 843 km
apogee height: 847 km
right ascension of ascending node: 307.2683°
argument of perigee: 113.5015°
revolutions per day: 14.14199019
mean anomaly at epoch: 246.6443°
orbit number at epoch: 68099

The dashed part of the orbit path shows where the satellite is in the earth's shadow,  

DLR